Weather History for Chesapeake, VA

Change the Weather History Date:

Monday, January 6, 2014

  Actual Average (KORF) Record (KORF)
Temperature  
Mean Temperature 46 °F 40 °F  
Max Temperature 66 °F 48 °F 75 °F (1950)
Min Temperature 26 °F 33 °F 10 °F (1884)
Degree Days  
Heating Degree Days 19 25  
Month to date heating degree days 145  
Since 1 July heating degree days 1324  
Cooling Degree Days 0 0  
Month to date cooling degree days 0  
Year to date cooling degree days 0  
Moisture  
Dew Point 43 °F    
Average Humidity 77    
Maximum Humidity 100    
Minimum Humidity 37    
Precipitation  
Precipitation 0.09 in 0.12 in 1.57 in (1883)
Month to date precipitation 0.64  
Year to date precipitation 0.64  
Snow  
Snow 0.00 in 0.10 in 1.80 in (2003)
Month to date snowfall 0.5  
Since 1 July snowfall 1.7  
Snow Depth -    
Sea Level Pressure  
Sea Level Pressure 29.75 in    
Wind  
Wind Speed 14 mph (WSW)    
Max Wind Speed 22 mph    
Max Gust Speed 28 mph    
Visibility 9 miles    
Events Rain    
T = Trace of Precipitation, MM = Missing Value Source: NWS Daily Summary

Daily Weather History Graph

Daily Weather History Graph

Search for Another Location

Airport:

Trip Planner

Search our weather history database for the weather conditions in past years. The results will help you decide how hot, cold, wet, or windy it might be!

Date:

Astronomy

Jan. 06, 2014 Rise Set
Actual Time 7:18 AM EST 5:04 PM EST
Civil Twilight 6:49 AM EST 5:33 PM EST
Nautical Twilight 6:17 AM EST 6:05 PM EST
Astronomical Twilight 5:46 AM EST 6:36 PM EST
Moon 10:42 AM EST (1/6) 11:24 PM EST (1/6)
Length of Visible Light 10h 43m
Length of Day
9h 46m
Waxing Crescent, 34% of the Moon is Illuminated
Jan 6
Waxing Crescent
Jan 7
First Quarter
Jan 15
Full
Jan 24
Last Quarter
Jan 30
New

Hourly Weather History & Observations

Time (EST) Temp. Windchill Dew Point Humidity Pressure Visibility Wind Dir Wind Speed Gust Speed Precip Events Conditions
12:17 AM 62.6 °F - 60.8 °F 94% 29.80 in 7.0 mi South 10.4 mph - N/A   Overcast
12:57 AM 62.6 °F - 60.8 °F 94% 29.78 in 10.0 mi South 11.5 mph - N/A   Overcast
1:21 AM 62.6 °F - 62.6 °F 100% 29.76 in 7.0 mi South 10.4 mph - N/A   Overcast
2:02 AM 64.4 °F - 62.6 °F 94% 29.75 in 10.0 mi South 12.7 mph - N/A   Overcast
2:18 AM 62.6 °F - 62.6 °F 100% 29.74 in 10.0 mi South 12.7 mph - N/A   Overcast
2:58 AM 64.4 °F - 62.6 °F 94% 29.71 in 10.0 mi South 13.8 mph 17.3 mph N/A   Overcast
3:18 AM 64.4 °F - 62.6 °F 94% 29.70 in 10.0 mi South 13.8 mph 23.0 mph N/A   Overcast
3:58 AM 64.4 °F - 62.6 °F 94% 29.68 in 10.0 mi South 15.0 mph - N/A   Overcast
4:15 AM 64.4 °F - 62.6 °F 94% 29.67 in 10.0 mi South 13.8 mph 20.7 mph N/A   Overcast
4:35 AM 64.4 °F - 62.6 °F 94% 29.66 in 10.0 mi South 17.3 mph 23.0 mph N/A   Overcast
4:55 AM 64.4 °F - 62.6 °F 94% 29.66 in 10.0 mi South 17.3 mph 21.9 mph N/A   Overcast
5:15 AM 64.4 °F - 62.6 °F 94% 29.65 in 10.0 mi South 15.0 mph 25.3 mph N/A   Overcast
5:35 AM 64.4 °F - 62.6 °F 94% 29.64 in 10.0 mi South 15.0 mph 21.9 mph N/A   Overcast
5:55 AM 64.4 °F - 60.8 °F 88% 29.64 in 10.0 mi South 18.4 mph 25.3 mph N/A   Overcast
6:15 AM 64.4 °F - 60.8 °F 88% 29.63 in 10.0 mi South 18.4 mph 23.0 mph N/A   Mostly Cloudy
6:35 AM 64.4 °F - 60.8 °F 88% 29.63 in 10.0 mi South 18.4 mph 25.3 mph N/A   Mostly Cloudy
6:55 AM 64.4 °F - 60.8 °F 88% 29.62 in 10.0 mi South 15.0 mph 21.9 mph N/A   Mostly Cloudy
7:15 AM 64.4 °F - 60.8 °F 88% 29.62 in 10.0 mi South 18.4 mph 23.0 mph N/A   Mostly Cloudy
7:35 AM 66.2 °F - 60.8 °F 83% 29.62 in 10.0 mi SSW 16.1 mph 24.2 mph N/A   Overcast
7:55 AM 66.2 °F - 62.6 °F 88% 29.62 in 7.0 mi SSW 15.0 mph 21.9 mph N/A   Overcast
8:15 AM 66.2 °F - 60.8 °F 83% 29.62 in 10.0 mi SSW 17.3 mph 26.5 mph N/A   Overcast
8:35 AM 66.2 °F - 60.8 °F 83% 29.62 in 10.0 mi SSW 16.1 mph 23.0 mph N/A   Mostly Cloudy
8:55 AM 66.2 °F - 60.8 °F 83% 29.62 in 10.0 mi SSW 12.7 mph 25.3 mph N/A   Mostly Cloudy
9:15 AM 66.2 °F - 60.8 °F 83% 29.62 in 10.0 mi SSW 12.7 mph 21.9 mph N/A   Overcast
9:35 AM 66.2 °F - 60.8 °F 83% 29.62 in 10.0 mi SSW 13.8 mph 23.0 mph N/A   Overcast
9:55 AM 66.2 °F - 59.0 °F 78% 29.61 in 10.0 mi SSW 16.1 mph 23.0 mph N/A   Overcast
10:15 AM 66.2 °F - 59.0 °F 78% 29.61 in 10.0 mi SW 11.5 mph 24.2 mph N/A Rain Light Rain
10:35 AM 64.4 °F - 59.0 °F 83% 29.60 in 7.0 mi SW 15.0 mph 23.0 mph N/A Rain Light Rain
10:55 AM 53.6 °F - 51.8 °F 94% 29.64 in 4.0 mi West 18.4 mph 27.6 mph 0.02 in Rain Rain
11:15 AM 51.8 °F - 50.0 °F 94% 29.65 in 5.0 mi WNW 13.8 mph 26.5 mph 0.03 in Rain Rain
11:35 AM 50.0 °F - 48.2 °F 94% 29.65 in 5.0 mi West 15.0 mph 24.2 mph 0.03 in   Light Drizzle
11:55 AM 48.2 °F - 46.4 °F 93% 29.64 in 10.0 mi West 11.5 mph 18.4 mph N/A   Overcast
12:15 PM 46.4 °F 39.8 °F 46.4 °F 100% 29.65 in 7.0 mi West 16.1 mph - N/A   Overcast
12:35 PM 46.4 °F 41.9 °F 46.4 °F 100% 29.64 in 4.0 mi West 9.2 mph 17.3 mph N/A Rain Rain
12:55 PM 46.4 °F 41.5 °F 46.4 °F 100% 29.65 in 4.0 mi West 10.4 mph - N/A   Drizzle
1:15 PM 46.4 °F 41.9 °F 46.4 °F 100% 29.65 in 4.0 mi West 9.2 mph - 0.01 in Rain Light Rain
1:35 PM 44.6 °F 38.8 °F 44.6 °F 100% 29.67 in 5.0 mi WNW 11.5 mph 18.4 mph 0.03 in Rain Rain
1:55 PM 42.8 °F 37.5 °F 41.0 °F 93% 29.67 in 10.0 mi West 9.2 mph 19.6 mph N/A   Overcast
2:15 PM 42.8 °F 37.0 °F 41.0 °F 93% 29.68 in 10.0 mi West 10.4 mph - N/A   Overcast
2:35 PM 44.6 °F 40.7 °F 42.8 °F 93% 29.69 in 10.0 mi West 6.9 mph - N/A   Overcast
2:55 PM 44.6 °F 40.2 °F 42.8 °F 93% 29.70 in 10.0 mi West 8.1 mph - N/A   Overcast
3:15 PM 46.4 °F 41.1 °F 42.8 °F 87% 29.70 in 10.0 mi WSW 11.5 mph - 0.01 in   Scattered Clouds
3:35 PM 46.4 °F 40.7 °F 39.2 °F 76% 29.71 in 10.0 mi West 12.7 mph 17.3 mph 0.01 in   Scattered Clouds
3:55 PM 46.4 °F 42.4 °F 39.2 °F 76% 29.72 in 10.0 mi West 8.1 mph 16.1 mph N/A   Scattered Clouds
4:15 PM 46.4 °F 42.4 °F 37.4 °F 71% 29.73 in 10.0 mi West 8.1 mph - N/A   Scattered Clouds
4:35 PM 44.6 °F 38.8 °F 30.2 °F 57% 29.74 in 10.0 mi WSW 11.5 mph 17.3 mph N/A   Clear
4:55 PM 44.6 °F 37.8 °F 28.4 °F 53% 29.75 in 10.0 mi West 15.0 mph 21.9 mph N/A   Clear
5:15 PM 42.8 °F 36.2 °F 28.4 °F 57% 29.77 in 10.0 mi West 12.7 mph 21.9 mph N/A   Clear
5:35 PM 42.8 °F 36.2 °F 28.4 °F 57% 29.79 in 10.0 mi West 12.7 mph 18.4 mph N/A   Clear
5:55 PM 41.0 °F 33.1 °F 26.6 °F 57% 29.81 in 10.0 mi West 15.0 mph 21.9 mph N/A   Clear
6:15 PM 41.0 °F 32.2 °F 24.8 °F 53% 29.82 in 10.0 mi West 18.4 mph 21.9 mph N/A   Clear
6:35 PM 39.2 °F 31.2 °F 23.0 °F 52% 29.83 in 10.0 mi West 13.8 mph 20.7 mph N/A   Clear
6:55 PM 39.2 °F 31.6 °F 23.0 °F 52% 29.85 in 10.0 mi West 12.7 mph 20.7 mph N/A   Clear
7:15 PM 37.4 °F 28.2 °F 23.0 °F 56% 29.86 in 10.0 mi West 16.1 mph 20.7 mph N/A   Clear
7:35 PM 37.4 °F 28.2 °F 23.0 °F 56% 29.88 in 10.0 mi West 16.1 mph 23.0 mph N/A   Clear
7:55 PM 37.4 °F 28.9 °F 21.2 °F 52% 29.89 in 10.0 mi West 13.8 mph 25.3 mph N/A   Clear
8:15 PM 37.4 °F 27.5 °F 21.2 °F 52% 29.90 in 10.0 mi West 18.4 mph 25.3 mph N/A   Clear
8:35 PM 35.6 °F 25.2 °F 19.4 °F 52% 29.92 in 10.0 mi West 18.4 mph 24.2 mph N/A   Clear
8:55 PM 35.6 °F 25.9 °F 19.4 °F 52% 29.94 in 10.0 mi West 16.1 mph 26.5 mph N/A   Clear
9:15 PM 33.8 °F 24.3 °F 19.4 °F 56% 29.95 in 10.0 mi West 13.8 mph 26.5 mph N/A   Clear
9:35 PM 33.8 °F 23.9 °F 17.6 °F 52% 29.96 in 10.0 mi West 15.0 mph 21.9 mph N/A   Clear
9:55 PM 33.8 °F 22.8 °F 15.8 °F 48% 29.98 in 10.0 mi West 18.4 mph 21.9 mph N/A   Clear
10:15 PM 32.0 °F 20.8 °F 12.2 °F 44% 29.99 in 10.0 mi West 17.3 mph 24.2 mph N/A   Clear
10:35 PM 30.2 °F 19.8 °F 10.4 °F 44% 30.01 in 10.0 mi West 13.8 mph 26.5 mph N/A   Clear
10:55 PM 30.2 °F 17.4 °F 6.8 °F 37% 30.01 in 10.0 mi WNW 20.7 mph 26.5 mph N/A   Clear
11:15 PM 28.4 °F 16.6 °F 6.8 °F 40% 30.02 in 10.0 mi West 16.1 mph 27.6 mph N/A   Clear
11:35 PM 26.6 °F 12.4 °F 6.8 °F 43% 30.04 in 10.0 mi West 21.9 mph - N/A   Clear
11:55 PM 26.6 °F 14.7 °F 8.6 °F 47% 30.05 in 10.0 mi West 15.0 mph 20.7 mph N/A   Clear